SCP
0 0 0 0 0 0 0 0 0 0 0 0 0 0 0 0 0 0 0 0 0 0 0 0 0 0 0 0 0 0 0 0 0 0 0 0 0 0 0 0 0 0 0
0 0 0 0 0 0 0 0 0 0 0 0 0 0 0 0 0 0 0 0 0 0 0 0 0 0 0 0 0 0 0 0 0 0 0 0 0 0 0 0 0 0 0
0 0 0 0 0 0 0 0 0 0 0 0 0 0 0 0 0 0 0 0 0 0 0 0 0 0 0 0 0 0 0 0 0 0 0 0 0 0 0 0 0 0 0
0 0 0 0 0 0 0 0 0 0 0 0 0 0 0 0 0 0 0 0 0 0 0 0 0 0 0 0 0 0 0 0 0 0 0 0 0 0 0 0 0 0 0
0 0 0 0 0 0 0 0 0 0 0 0 0 0 0 0 0 0 0 0 0 0 0 0 0 0 0 0 0 0 0 0 0 0 0 0 0 0 0 0 0 0 0
0 0 0 0 0 0 0 0 0 0 0 0 0 0 0 0 0 0 0 0 0 0 0 0 0 0 0 0 0 0 0 0 0 0 0 0 0 0 0 0 0 0 0
0 0 0 0 0 0 0 0 0 0 0 0 0 0 0 0 0 0 0 0 0 0 0 0 0 0 0 0 0 0 0 0 0 0 0 0 0 0 0 0 0 0 0
0 0 0 0 0 0 0 0 0 0 0 0 0 0 0 0 0 0 0 0 0 0 0 0 0 0 0 0 0 0 0 0 0 0 0 0 0 0 0 0 0 0 0
0 0 0 0 0 0 0 0 0 0 0 0 0 0 0 0 0 0 0 0 0 0 0 0 0 0 0 0 0 0 0 0 0 0 0 0 0 0 0 0 0 0 0
0 0 0 0 0 0 0 0 0 0 0 0 0 0 0 0 0 0 0 0 0 0 0 0 0 0 0 -0 -0 -0 -0 -0 -0 0 0 0 0 0 0 0 0 0 0
0 0 0 0 0 0 0 0 0 0 0 0 0 0 0 0 0 0 0 0 0 0 0 0 -0 -0 -0 -0 0 0 -0 -0 0 0 0 0 0 0 0 0 0 0 0
0 0 0 0 0 0 0 0 0 0 0 0 0 0 0 0 0 0 0 0 0 0 0 0 -0 -0 -0 0 0 0 0 0 0 0 0 0 0 0 0 0 0 0 0
0 0 0 0 0 0 0 0 0 0 0 0 0 0 0 0 0 0 0 0 0 0 0 0 0 -0 -0 0 0 0 0 0 0 0 0 0 0 0 0 0 0 0 0
0 0 0 0 0 0 0 0 0 0 0 0 0 0 0 0 0 0 0 0 0 0 0 0 0 -0 0 0 0 0 0 0 0 0 0 0 0 0 0 0 0 0 0
0 0 0 0 0 0 0 0 0 0 0 0 0 0 0 0 0 0 0 0 0 0 0 -0 0 0 0 0 0 0 0 0 0 0 0 0 0 0 0 0 0 0 0
0 0 0 0 0 0 0 0 0 0 0 0 0 -0 0 0 0 0 0 0 0 0 0 0 0 0 0 0 0 0 0 0 0 0 0 0 0 0 0 0 0 0 0
0 0 0 0 0 0 0 0 0 0 0 0 -0 -0 -0 -0 -0 -0 0 0 0 0 0 0 0 0 0 0 0 0 0 0 0 0 0 0 0 0 0 0 0 0 0
-0 -0 -0 -0 0 0 0 -0 0 0 0 -0 -0 -0 -0 -0 -0 -0 0 0 0 0 0 0 0 0 0 0 0 0 0 0 0 0 0 0 0 0 0 0 0 0 0
0 0 0 0 0 0 0 -0 0 0 0 -0 -0 -0 -0 -0 -0 -0 0 0 0 0 0 0 0 0 0 0 0 0 0 0 0 0 0 0 0 0 0 0 0 0 0
0 0 0 0 0 0 0 -0 -0 -0 -0 -0 -0 -0 -0 -0 -0 -0 0 0 0 0 0 0 0 0 0 0 0 0 0 0 0 0 0 0 0 0 0 0 0 0 0
0 0 0 0 0 0 0 0 0 -0 -0 -0 -0 -0 -0 -0 -0 0 0 0 0 0 0 0 0 0 0 0 0 0 0 0 0 0 0 0 0 0 0 0 0 0 0
0 0 0 0 0 0 0 0 0 -0 -0 -0 -0 -0 -0 -0 -0 0 0 0 0 0 0 0 0 0 0 0 0 0 0 0 0 0 0 0 0 0 0 0 0 0 0
0 0 0 0 0 0 0 0 0 0 0 0 0 0 0 0 -0 -0 -0 0 0 0 0 0 0 0 0 0 0 0 0 0 0 0 0 0 0 0 0 0 0 0 0
0 0 0 0 0 0 0 0 0 0 0 0 0 0 0 0 0 0 0 0 0 0 0 0 0 0 0 0 0 0 0 0 0 0 0 0 0 0 0 0 0 0 0
0 0 0 0 0 0 0 0 0 0 0 0 0 0 0 0 0 0 0 0 0 0 0 0 0 0 0 0 0 0 0 0 0 0 0 0 0 0 0 0 0 0 0
0 0 0 0 0 0 0 0 0 0 0 0 0 0 0 0 0 0 0 0 0 0 0 0 0 0 0 0 0 0 0 0 0 0 0 0 0 0 0 0 0 0 0
Wind_Speed
8 8 8 7 7 7 7 6 5 4 4 3 2 2 2 3 4 4 4 4 4 4 4 4 4 4 3 4 4 4 4 4 9 7 4 5 6 8 9 8 8 8 10
7 7 7 7 7 7 6 5 5 5 4 4 4 5 6 7 7 6 5 5 4 4 5 5 6 5 5 5 4 5 5 5 7 11 6 5 7 8 8 9 10 10 7
7 8 8 7 8 7 6 6 6 6 6 6 6 7 7 6 5 4 4 3 4 4 5 6 6 6 6 6 6 6 6 7 6 8 9 6 6 7 8 10 11 9 10
8 8 8 7 7 7 7 7 7 7 6 6 6 6 5 4 4 3 3 3 4 5 6 6 7 7 7 7 7 7 7 7 7 8 9 8 7 7 7 8 9 7 8
9 8 7 7 7 7 7 7 6 6 6 5 5 4 3 2 1 2 3 5 5 7 7 7 8 12 14 10 8 7 7 7 7 8 9 8 8 7 7 7 9 8 9
8 7 7 7 7 7 6 6 5 5 5 5 4 3 1 1 2 4 5 5 6 7 8 9 9 10 13 17 19 18 16 11 9 9 9 9 10 9 8 7 8 9 7
7 7 6 6 7 6 6 5 5 4 4 4 3 2 1 2 3 6 9 6 6 7 8 8 9 10 13 9 13 18 17 19 18 12 11 10 10 8 8 9 9 9 9
7 7 6 6 6 6 6 5 4 3 3 2 2 2 2 3 5 6 10 7 7 8 8 9 9 10 10 10 10 11 11 11 12 9 8 9 9 8 8 9 9 8 8
6 5 5 5 5 5 5 4 2 2 3 2 2 3 3 4 6 8 9 6 6 9 9 9 9 9 12 14 11 10 11 9 11 12 12 11 12 12 9 6 5 6 6
4 4 4 4 5 4 3 2 2 2 3 3 4 4 4 3 6 9 10 5 6 8 8 9 11 11 13 14 9 9 9 9 9 9 8 8 7 6 7 5 5 5 4
4 4 4 4 4 3 3 2 3 3 4 4 4 4 4 5 7 10 12 6 7 8 8 7 7 13 15 14 11 7 9 10 8 7 6 5 5 4 4 4 4 4 4
4 4 4 3 3 4 4 3 4 4 4 4 4 5 4 5 6 10 14 13 11 8 7 7 8 14 14 13 9 9 12 9 5 5 4 4 4 4 4 5 5 4 4
3 3 3 4 3 3 4 4 4 4 3 3 3 4 5 5 6 12 14 15 16 9 7 12 13 14 12 8 9 12 9 5 4 4 4 4 4 4 5 4 5 4 3
3 3 3 3 2 3 3 3 2 2 2 3 3 4 5 5 5 7 8 8 11 9 7 9 12 11 9 9 8 7 5 4 4 4 5 4 3 4 4 4 4 4 3
4 4 3 2 2 2 1 1 2 2 2 1 2 3 5 5 7 12 8 6 7 7 7 5 5 6 6 6 6 6 5 5 5 4 4 4 4 4 4 4 4 4 4
4 2 2 1 1 1 1 0 2 3 3 1 2 4 4 6 11 13 13 13 13 13 6 5 5 6 6 7 7 6 5 5 5 4 4 4 5 5 5 5 4 5 5
3 2 2 1 1 1 1 1 1 2 3 4 5 7 7 9 11 12 14 12 11 11 5 5 6 6 6 7 6 6 6 6 5 4 4 4 4 5 5 5 5 5 6
2 2 2 2 2 2 1 1 1 1 1 3 4 6 9 10 10 12 13 9 6 7 5 6 6 6 6 6 7 6 7 7 5 4 4 3 4 5 5 6 6 7 6
1 1 1 1 2 2 1 1 1 1 1 1 3 4 7 9 8 9 9 5 5 6 6 6 6 6 6 6 7 7 7 6 7 5 4 3 3 3 4 5 5 8 7
2 3 3 1 1 1 1 1 1 1 1 1 2 3 5 5 4 5 5 5 5 5 6 6 6 6 6 6 7 7 7 7 7 6 5 3 2 2 3 4 4 5 6
2 2 2 1 1 1 1 1 1 1 1 1 1 3 5 4 4 5 5 5 5 5 5 6 6 6 6 6 6 8 8 7 7 7 6 3 2 2 2 2 2 3 4
1 2 2 2 1 1 1 1 1 2 2 1 1 2 6 4 4 4 5 5 5 4 5 5 5 5 5 6 6 7 7 7 7 7 6 4 2 2 1 2 2 2 3
3 3 2 2 2 3 3 2 2 2 2 2 1 2 3 4 4 4 5 5 5 5 5 5 5 5 5 5 5 5 5 6 6 6 6 5 3 2 2 2 3 4 4
4 4 4 3 3 3 3 3 3 3 3 2 2 2 3 3 4 5 5 5 5 5 5 5 5 7 10 8 6 5 5 6 6 5 5 4 4 3 3 3 3 4 5
4 4 4 3 3 3 3 3 3 3 3 3 3 2 3 4 5 5 5 5 6 6 7 7 6 7 9 10 9 9 10 10 8 6 5 4 5 4 4 4 4 4 4
4 4 3 3 3 3 3 3 3 4 3 3 3 3 3 4 5 5 6 6 6 6 7 6 9 10 11 9 11 12 10 10 10 9 5 4 5 5 4 4 4 4 4
Wind_Direction
95 96 95 94 97 98 99 102 103 103 106 106 106 87 52 38 36 39 27 18 14 358 351 338 316 303 293 289 280 268 260 257 280 285 256 263 267 273 284 281 278 274 276
98 94 91 90 91 92 92 90 88 82 73 69 64 66 69 66 59 54 39 28 14 354 337 328 315 313 301 287 276 267 263 255 265 284 284 271 266 268 271 274 284 283 276
90 88 83 84 86 86 83 78 73 71 64 61 68 75 80 77 67 55 41 19 350 327 316 308 301 300 294 287 277 270 266 269 259 273 282 272 269 272 276 278 277 275 279
85 83 80 76 77 77 73 68 66 66 66 69 78 91 93 88 75 46 22 357 333 318 308 300 294 288 281 280 279 272 272 273 270 270 277 278 275 271 267 274 280 271 272
84 79 76 72 71 67 65 64 63 65 73 79 90 101 115 107 67 38 358 343 326 315 310 302 296 303 306 306 304 293 284 278 276 275 278 279 277 275 270 267 276 278 270
80 76 71 69 67 68 68 68 66 62 61 70 79 89 61 22 343 357 352 327 313 308 306 305 303 304 309 313 310 307 302 294 288 281 281 279 279 275 275 273 275 278 278
71 72 71 72 70 61 69 67 61 58 61 65 59 48 7 314 319 335 340 333 313 304 300 302 308 308 311 300 303 306 302 298 293 287 283 282 282 280 279 278 274 274 274
75 76 76 79 79 75 69 61 54 54 58 50 32 21 1 336 336 335 337 334 311 303 300 298 297 299 303 307 307 303 298 296 294 292 283 283 283 282 278 279 283 281 272
85 83 84 93 95 84 71 57 46 51 41 31 23 24 18 347 351 347 347 323 310 307 304 303 304 302 304 313 313 307 305 304 306 300 293 289 289 290 294 294 291 293 293
97 95 98 102 101 96 86 62 42 55 44 32 29 20 15 353 347 346 346 322 314 313 310 308 309 307 311 316 313 308 308 312 313 314 311 309 305 304 311 307 310 308 305
100 91 94 107 111 103 78 55 52 53 42 30 20 359 353 345 339 339 340 333 318 314 311 312 311 314 316 316 314 305 306 310 308 307 309 312 317 318 316 311 308 308 307
100 92 87 82 89 92 79 55 48 53 42 21 3 349 336 331 332 332 332 331 326 314 309 311 312 317 320 321 320 316 319 321 314 316 320 321 322 327 324 318 313 311 309
108 107 98 85 73 84 88 76 55 46 39 8 353 339 326 325 327 332 331 329 331 328 313 318 322 326 329 327 324 327 327 324 322 324 324 318 319 325 327 325 322 321 320
123 124 121 110 84 74 83 95 86 59 35 6 348 333 323 323 330 335 329 326 331 333 326 324 327 332 339 334 331 332 328 321 321 319 322 320 328 338 342 340 336 341 342
116 127 126 125 125 118 116 149 146 182 183 189 314 312 321 328 327 328 330 329 332 329 325 330 343 342 347 343 338 334 333 337 339 337 339 348 354 357 356 350 354 357 6
114 125 139 145 151 165 176 292 240 210 212 233 307 326 308 315 329 341 346 346 348 350 357 348 347 346 343 343 342 339 335 342 344 350 355 1 6 9 9 7 8 16 21
133 152 164 171 175 176 178 184 279 307 293 292 301 331 343 345 351 352 350 346 354 2 5 350 348 346 343 344 344 342 342 343 347 355 1 8 13 16 16 19 19 23 28
141 170 174 188 190 189 182 180 175 170 312 317 314 330 349 352 351 354 352 353 359 3 356 349 346 344 344 346 346 346 348 352 356 358 3 12 22 27 29 28 29 29 32
167 206 211 198 187 192 180 157 146 149 176 325 340 340 344 343 342 351 356 1 352 350 348 346 343 343 345 347 346 348 351 353 357 360 3 9 20 33 36 33 35 33 37
243 233 205 191 188 174 158 145 131 122 120 38 359 342 337 344 351 349 351 349 348 346 344 342 341 343 346 347 347 350 353 356 358 1 0 4 15 32 49 50 42 39 42
236 233 198 135 142 158 155 156 154 144 136 107 347 348 356 351 348 346 347 346 345 342 340 339 339 343 347 348 348 350 354 355 356 356 358 0 7 20 31 60 58 48 50
151 155 144 142 144 143 135 114 113 115 118 116 358 347 358 358 351 348 346 344 342 336 334 335 337 339 341 342 344 346 348 350 351 351 350 352 1 5 15 46 68 67 62
91 98 95 101 102 92 81 77 90 96 100 106 89 12 358 356 355 353 349 346 343 341 341 344 345 345 343 337 335 336 335 330 324 324 333 346 9 28 40 56 73 80 80
90 92 89 85 84 84 86 80 79 85 84 76 64 33 2 355 357 359 356 350 348 348 349 351 352 349 348 344 337 333 326 318 314 313 329 357 22 40 54 64 73 91 98
90 90 86 85 86 85 82 78 74 71 68 65 59 41 15 10 7 4 1 359 1 2 2 0 357 354 348 345 344 338 332 334 342 344 350 16 33 46 58 67 75 87 99
78 83 79 77 77 79 83 82 76 74 68 62 55 43 26 20 15 10 6 7 7 5 4 1 357 359 357 350 343 338 339 347 355 1 7 25 37 41 49 56 67 76 89